Location: Asheville, NC
(35.6000°N, 82.5500°W)
Time: 04:22:56
(UTC-05:00)

CUTE-I - Pass Details

Date: 07 January 2018
Orbit: 810 x 826 km, 98.7° (Epoch: 18 January)

Event Time Altitude Azimuth Distance (km) Brightness Sun altitude
Rises 18:10:18 0° 169° (S) 3,333 ? -7.7°
Reaches altitude 10° 18:12:38 10° 170° (S) 2,402 ? -8.2°
Maximum altitude 18:17:57 78° 257° (WSW) 836 ? -9.2°
Drops below altitude 10° 18:23:17 10° 344° (NNW) 2,407 ? -10.2°
Sets 18:25:38 0° 346° (NNW) 3,341 ? -10.6°
